Voltar ao catálogo

STARLINK-31337

AtivoComunicaçõesVLEO
NORAD 58934·PAYLOAD·🇺🇸 United States

Lançado Feb 10, 2024 de Vandenberg Space Force Base

Loading…

Próximas Passagens (próximas 24 horas)

TLE

AtualizadoSource: CelesTrak SupGP

Época: Sep 15, 2026, 01:53 UTC

1 58934C 24027D   26258.07895833  .00000180  00000+0  53117-5 0  2588
2 58934  53.1589 148.8854 0001292  73.4319 137.2147 15.34393629    12

Acompanhe STARLINK-31337 em tempo real com AllMySat

Download on the App Store